8,
Avoca, PA
on Saturday, January 12, 2013

Saturday
Previous Day Next Day
Daily Summary
 ActualAverageRecord
Temperature
Mean Temperature °F 26°F  
Max Temperature 44°F 33°F 54°F (1932)
Min Temperature 37°F 18°F -10°F (1981)
Degree Days
Heating Degree Days 24 39  
Month to date heating degree days 408 467  
Since 1 July heating degree days 2522 2845  
Cooling Degree Days 0 0  
Month to date cooling degree days 0 0  
Year to date cooling degree days 0 0  
Moisture
Dew Point 39°F   
Average Humidity 96    
Maximum Humidity 100    
Minimum Humidity 92    
Precipitation
Precipitation 0.00 in 0.08 in 0.81 in (1918)
Month to date precipitation 0.21 0.87  
Year to date precipitation 0.21 0.87  
Wind
Wind Speed 1 mph   
Max Wind Speed 6 mph   
Max Gust Speed 8 mph   
Visibility 1 miles   
Events Fog   

Key: T is trace of precipitation, MM is missing value
Source: NWS Daily Summary
Time(EST)TemperatureDew PointHumidity Pressure Visibility Wind DirectionWind SpeedGust SpeedPrecipitationEvents Conditions
12:15 AM 37.4°F 37.4°F 100% 30.09 in 1.5 miles Calm Calm - N/A   Overcast
12:27 AM 37.4°F 35.6°F 93% 30.08 in 2.0 miles Calm Calm - N/A   Overcast
12:37 AM 37.4°F 35.6°F 93% 30.07 in 1.0 miles Calm Calm - N/A   Overcast
12:45 AM 37.4°F 37.4°F 100% 30.08 in 3.0 miles Calm Calm - N/A   Overcast
12:54 AM 37.9°F 37.0°F 97% 30.09 in 4.0 miles Calm Calm - N/A   Overcast
1:21 AM 37.4°F 35.6°F 93% 30.08 in 2.5 miles Calm Calm - N/A   Overcast
1:35 AM 37.4°F 35.6°F 93% 30.08 in 1.0 miles Calm Calm - N/A   Overcast
1:54 AM 37.9°F 37.0°F 97% 30.11 in 1.5 miles Calm Calm - N/A   Overcast
2:13 AM 37.4°F 37.4°F 100% 30.09 in 2.5 miles Calm Calm - N/A   Overcast
2:24 AM 37.4°F 37.4°F 100% 30.10 in 3.0 miles Calm Calm - N/A   Overcast
2:41 AM 37.4°F 37.4°F 100% 30.10 in 1.8 miles Calm Calm - N/A   Overcast
2:54 AM 39.2°F 37.4°F 93% 30.09 in 2.0 miles East 3.5 mph - N/A   Overcast
2:56 AM 39.2°F 37.4°F 93% 30.09 in 4.0 miles East 3.5 mph - N/A   Overcast
3:25 AM 37.4°F 37.4°F 100% 30.10 in 3.0 miles Calm Calm - N/A   Overcast
3:27 AM 37.4°F 37.4°F 100% 30.10 in 1.8 miles Calm Calm - N/A   Overcast
3:33 AM 37.4°F 37.4°F 100% 30.10 in 0.8 miles Calm Calm - N/A   Overcast
3:46 AM 37.4°F 35.6°F 93% 30.10 in 0.5 miles SW 4.6 mph - N/A Fog Fog
3:54 AM 37.0°F 37.0°F 100% 30.12 in 0.2 miles Calm Calm - N/A Fog Fog
4:38 AM 37.4°F 37.4°F 100% 30.09 in 0.2 miles Calm Calm - N/A Fog Fog
4:43 AM 37.4°F 37.4°F 100% 30.08 in 0.5 miles Calm Calm - N/A Fog Fog
4:54 AM 37.9°F 37.0°F 97% 30.10 in 0.8 miles Calm Calm - N/A   Mist
5:03 AM 37.4°F 37.4°F 100% 30.09 in 1.2 miles Calm Calm - N/A   Overcast
5:23 AM 37.4°F 37.4°F 100% 30.08 in 1.8 miles Calm Calm - N/A   Overcast
5:31 AM 39.2°F 37.4°F 93% 30.08 in 2.5 miles Calm Calm - N/A   Overcast
5:39 AM 37.4°F 37.4°F 100% 30.09 in 4.0 miles Calm Calm - N/A   Overcast
5:50 AM 37.4°F 37.4°F 100% 30.09 in 1.8 miles Calm Calm - N/A   Overcast
5:54 AM 37.9°F 37.0°F 97% 30.11 in 2.0 miles Calm Calm - N/A   Overcast
6:08 AM 37.4°F 35.6°F 93% 30.09 in 0.8 miles East 4.6 mph - N/A   Overcast
6:29 AM 37.4°F 37.4°F 100% 30.10 in 0.2 miles Calm Calm - N/A Fog Fog
6:54 AM 37.0°F 37.0°F 100% 30.12 in 0.2 miles Calm Calm - N/A Fog Fog
7:27 AM 37.4°F 37.4°F 100% 30.10 in 0.5 miles Calm Calm - N/A Fog Fog
7:41 AM 37.4°F 37.4°F 100% 30.11 in 0.2 miles SW 3.5 mph - N/A Fog Fog
7:54 AM 37.0°F 37.0°F 100% 30.15 in 0.2 miles SW 3.5 mph - N/A Fog Fog
8:10 AM 37.4°F 37.4°F 100% 30.13 in 0.2 miles Calm Calm - N/A Fog Fog
8:25 AM 37.4°F 37.4°F 100% 30.14 in 0.2 miles SW 3.5 mph - N/A Fog Fog
8:54 AM 39.0°F 37.9°F 96% 30.15 in 0.2 miles Calm Calm - N/A Fog Fog
9:54 AM 39.0°F 37.9°F 96% 30.15 in 0.2 miles Calm Calm - N/A Fog Fog
10:54 AM 39.9°F 39.0°F 97% 30.14 in 0.2 miles Calm Calm - N/A Fog Fog
11:08 AM 39.2°F 39.2°F 100% 30.12 in 0.2 miles Calm Calm - N/A Fog Fog
11:46 AM 41.0°F 39.2°F 93% 30.11 in 0.2 miles West 3.5 mph - N/A Fog Fog
11:54 AM 41.0°F 39.9°F 96% 30.13 in 0.2 miles West 3.5 mph - N/A Fog Fog
12:06 PM 41.0°F 39.2°F 93% 30.12 in 0.2 miles SW 4.6 mph - N/A Fog Fog
12:34 PM 41.0°F 41.0°F 100% 30.12 in 0.8 miles Calm Calm - N/A   Mist
12:42 PM 41.0°F 41.0°F 100% 30.11 in 1.2 miles SSW 3.5 mph - N/A   Overcast
12:54 PM 42.1°F 41.0°F 96% 30.12 in 1.5 miles Calm Calm - N/A   Overcast
1:11 PM 42.8°F 41.0°F 93% 30.10 in 2.5 miles SW 3.5 mph - N/A   Overcast
1:19 PM 42.8°F 41.0°F 93% 30.10 in 4.0 miles WSW 3.5 mph - N/A   Overcast
1:54 PM 43.0°F 42.1°F 97% 30.11 in 3.0 miles Calm Calm - N/A   Overcast
2:07 PM 42.8°F 42.8°F 100% 30.10 in 2.5 miles Calm Calm - N/A   Overcast
2:25 PM 42.8°F 41.0°F 93% 30.10 in 1.2 miles NE 3.5 mph - N/A   Overcast
2:54 PM 43.0°F 42.1°F 97% 30.12 in 1.0 miles North 3.5 mph - N/A   Overcast
3:03 PM 42.8°F 42.8°F 100% 30.10 in 0.8 miles Calm Calm - N/A   Overcast
3:44 PM 42.8°F 42.8°F 100% 30.11 in 1.0 miles Calm Calm - N/A   Overcast
3:54 PM 43.0°F 42.1°F 97% 30.13 in 1.8 miles Calm Calm - N/A   Overcast
4:29 PM 42.8°F 42.8°F 100% 30.12 in 0.5 miles Calm Calm - N/A Fog Fog
4:40 PM 42.8°F 41.0°F 93% 30.11 in 0.2 miles Calm Calm - N/A Fog Fog
4:54 PM 43.0°F 42.1°F 97% 30.14 in 0.2 miles Calm Calm - N/A Fog Fog
5:18 PM 42.8°F 42.8°F 100% 30.11 in 0.5 miles Calm Calm - N/A Fog Fog
5:28 PM 42.8°F 41.0°F 93% 30.11 in 0.2 miles North 3.5 mph - N/A Fog Fog
5:36 PM 42.8°F 41.0°F 93% 30.12 in 0.2 miles Calm Calm - N/A Fog Fog
5:54 PM 42.1°F 42.1°F 100% 30.13 in 0.2 miles Calm Calm - N/A Fog Fog
6:49 PM 42.8°F 41.0°F 93% 30.11 in 0.2 miles Calm Calm - N/A Fog Fog
6:54 PM 42.1°F 41.0°F 96% 30.13 in 0.2 miles Calm Calm - N/A Fog Fog
7:54 PM 42.8°F 41.0°F 93% 30.10 in 0.2 miles Calm Calm - N/A Fog Fog
8:54 PM 41.0°F 39.9°F 96% 30.12 in 0.2 miles Calm Calm - N/A Fog Fog
9:54 PM 39.9°F 39.0°F 97% 30.11 in 0.2 miles Calm Calm - N/A Fog Fog
10:54 PM 41.0°F 39.9°F 96% 30.13 in 0.2 miles Calm Calm - N/A Fog Fog
11:28 PM 39.2°F 39.2°F 100% 30.12 in 0.2 miles Calm Calm - N/A Fog Fog
11:44 PM 39.2°F 39.2°F 100% 30.11 in 0.5 miles Calm Calm - N/A Fog Fog
11:54 PM 39.9°F 39.0°F 97% 30.12 in 0.5 miles Calm Calm - N/A Fog Fog
Astronomy
Sunrise:07:27 AM (EST) Moon Rise:07:43 AM (EST)1/12
Sunset:04:55 PM (EST) Moon Set:06:22 PM (EST)1/12
Moon Phase
Jan. 12 Jan. 18 Jan. 26 Feb. 03 Feb. 10

Copyright © 2014 The Weather Underground, Inc.
8,